Weather in Nikolo-Barnuki

Russia / Penza Oblast     53°27′12″N   46°19′09″E
temp.,
°C
wind,
m/s
gust,
m/s
humid.,
%
clouds,
%
prec.,
mm/h
press.,
hPa
HPBL,
m
19 september, sun
sun1900:00+2ne2277100 0.0 102510
03:00+1ne2280100 0.0 102510
06:00+1e228299 0.0 102628
09:00+7e335397 0.0 1026591
12:00+10ese3341100 0.0 10251160
15:00+11ese2237100 0.0 10241269
18:00+9e3445100 0.0 102488
21:00+7ese3750100 0.0 1024191
20 september, mon
mon2000:00+6e4851100 0.0 1024239
03:00+6ese51053100 0.0 1023362
06:00+5ese51161100 0.1 1024400
09:00+6e51158100 0.2 1024427
12:00+8se61056100 0.3 10231042
15:00+6ese61278100 1.7 1023582
18:00+6ese61383100 1.4 1023614
21:00+6ese71484100 1.9 1023661
21 september, tue
tue2100:00+6ese71484100 0.2 1022566
03:00+6ese61385100 0.3 1021558
06:00+6ese61383100 0.1 1020549
09:00+6ese71392100 0.8 1020477
12:00+6ese71389100 0.6 1019541
15:00+8ese797561 0.6 1018589
18:00+6e5982100 0.0 1018329
21:00+5e51283100 0.0 1018304
22 september, wed
wed2200:00+7ese51282100 0.4 1016307
03:00+7ese41080100 0.5 1016286
06:00+6ese4993100 2.4 1016292
09:00+7e3693100 3.9 1016227
12:00+7e3696100 1.8 1016201
15:00+8ne2398100 2.7 1016130
18:00+10e3799100 3.1 1016249
21:00+11se4996100 3.2 1017336
23 september, thu
thu2300:00+9ese4992100 0.7 1017258
03:00+9ese4994100 0.7 1018297
06:00+9se4995100 0.1 1018283
09:00+9se4995100 1.1 1019387
12:00+11sse71290100 0.3 1019711
15:00+11sse61395100 0.8 1019646
18:00+9se71392100 1.4 1020534
21:00+8se61195100 1.5 1020546